Simultaneous Nadir Overpasses (SNOs) Predictions

Prediction of SNOs between METOP-B and TERRA Satellite Orbit:

Table of predicted SNOs for the next 14.0 days since TLE Epoch: 1/8/2022
Index Date (METOP-B) Time (METOP-B) Lat,Lon (METOP-B) SZA (METOP-B ) Date (TERRA) Time (TERRA) Lat,Lon (TERRA) SZA (TERRA ) Distance(km) Time Diff (sec)
1 01/10/2022 16:21:07 81.25, -21.61 105.22 01/10/2022 16:21:13 81.24, -21.63 105.22 0.64 6
2 01/10/2022 17:11:46 -81.26, 146.33 74.72 01/10/2022 17:10:39 -81.26, 146.29 74.75 0.64 67
3 01/13/2022 11:04:47 -81.24,-122.96 75.31 01/13/2022 11:05:56 -81.24,-122.90 75.28 0.88 69
4 01/13/2022 11:55:26 81.26, 45.09 104.77 01/13/2022 11:55:21 81.26, 45.15 104.78 1.35 5
5 01/16/2022 06:39:08 -81.24, -56.62 75.85 01/16/2022 06:40:06 -81.24, -56.52 75.82 1.68 58
6 01/16/2022 07:29:47 81.25, 111.39 104.23 01/16/2022 07:29:31 81.26, 111.51 104.24 2.11 16
7 01/19/2022 02:13:28 -81.25, 10.09 76.40 01/19/2022 02:14:15 -81.25, 10.19 76.36 1.91 47
8 01/19/2022 03:04:08 81.25, 177.67 103.63 01/19/2022 03:03:41 81.25, 177.82 103.63 2.56 27
9 01/21/2022 21:47:48 -81.24, 76.39 77.04 01/21/2022 21:48:24 -81.24, 76.48 77.02 1.50 36



Historial Predications of SNOs between METOP-B and TERRA
